Regional Weather Roundup
Issued by NWS Cleveland, OH

Home | Current Version | Previous Version | Text Only | Print | Product List | Glossary Off
Versions: 1 2 3 4 5 6 7 8 9 10 11 12 13 14 15 16 17 18 19 20 21 22 23 24 25 26 27 28 29 30 31 32 33 34 35 36 37 38 39 40 41 42 43 44 45 46 47 48 49 50

000
ASUS41 KCLE 310700
RWRCLE
OHIO REGIONAL WEATHER ROUNDUP
NATIONAL WEATHER SERVICE WILMINGTON, OH
300 AM EDT THU JUL 31 2014

NOTE: "FAIR" INDICATES FEW OR NO CLOUDS BELOW 12,000 FEET WITH NO
SIGNIFICANT WEATHER AND/OR OBSTRUCTIONS TO VISIBILITY.

OHZ001>008-015>018-024>027-034-035-043-044-310800-
   NORTHWEST OHIO

CITY           SKY/WX    TMP DP  RH WIND       PRES   REMARKS
DEFIANCE       CLEAR     56  52  86 CALM      30.03S
FINDLAY        PTCLDY    62  57  83 W6        30.02S
TOLEDO EXPRESS CLEAR     58  54  86 W3        30.01F
TOLEDO METCALF CLEAR     59  54  83 SW3       30.02S
LIMA           PTCLDY    63  60  90 CALM      30.04S
$$

OHZ009>014-019>023-028>033-038-089-310800-
   NORTHEAST OHIO

CITY           SKY/WX    TMP DP  RH WIND       PRES   REMARKS
CLE-HOPKINS    PTCLDY    60  59  96 S5        30.02S
CLE-LAKEFRONT  PTCLDY    62  59  90 SE8       29.98S
CUY CO. ARPT   NOT AVBL
LORAIN-ELYRIA  CLEAR     61  58  90 SW3       30.01S FOG
ASHTABULA      PTCLDY    59  56  89 S6        30.00F
AKRON-CANTON   CLOUDY    61  58  90 S5        30.03F FOG
WOOSTER        NOT AVBL
MANSFIELD      PTCLDY    61  60  97 SW6       30.03F
YOUNGSTOWN     MOCLDY    59  56  89 S7        30.02F
$$

OHZ042-051>053-060>062-070>072-077>081-310800-
  SOUTHWEST OHIO

CITY           SKY/WX    TMP DP  RH WIND       PRES   REMARKS
CINC-COVINGTON CLOUDY    66  61  84 CALM      30.07S
CINC-LUNKEN    PTCLDY    62  60  93 S5        30.07S
HAMILTON       CLEAR     60  59  96 CALM      30.07S FOG
DAYTON         NOT AVBL
WRIGHT-PAT AFB PTCLDY    60  59  96 SW5       30.06S
DAYTON GENERAL CLEAR     62  59  90 CALM      30.06S
WILMINGTON     PTCLDY    61  58  90 CALM      30.08R
$$

OHZ036-037-039>041-045>050-054>059-063>069-073>076-082>088-310800-
  CENTRAL AND SOUTHEAST OHIO

CITY           SKY/WX    TMP DP  RH WIND       PRES   REMARKS
COLUMBUS       CLOUDY    65  59  81 CALM      30.05S
OSU AIRPORT    MOCLDY    63  57  81 SW5       30.05S
BOLTON FIELD   NOT AVBL
RICKENBACK AFB NOT AVBL
NEWARK         MOCLDY    62  59  90 CALM      30.04F
MARION         CLOUDY    65  59  81 W8        30.04S
LANCASTER      MOCLDY    61  58  90 SW3       30.06F
ZANESVILLE     PTCLDY    60  57  89 S3        30.05F
NEW PHILLY     CLOUDY    59  58  96 CALM      30.05S
$$


USA.gov is the U.S. government's official web portal to all federal, state and local government web resources and services.